Вернуться в каталог

DMSP 5D-2 F13 DEB

АктивенSSO
NORAD 40397·DEBRIS·🇺🇸 United States

Запущен Mar 24, 1995 с Vandenberg Space Force Base

Loading…

Ближайшие Пролёты (ближайшие 24 часа)

TLE

СвежийSource: Space-Track

Эпоха: Sep 14, 2026, 00:30 UTC

1 40397U 95015J   26257.02124607  .00001300  00000-0  51284-3 0  9994
2 40397  98.6881 284.7234 0009503 117.5539 242.6610 14.30787975599200

Отслеживайте DMSP 5D-2 F13 DEB в реальном времени с AllMySat

Download on the App Store